XBRLQ MMMY-MMMY

Flight info

Callsign XBRLQ
Flight time 0h 13m
Altitude 2300
Route MMMY/12
Aircraft C172/L-S/C

Departure

Time 2026-05-05 00:27
Airport Monterrey International Airport (MMMY)

Arrival

Time 2026-05-05 00:40
Airport Monterrey International Airport (MMMY)
Time Latitude Longitude Altitude Speed Heading
2026-05-05 00:15 25.78167 -100.11808 1276 ft 0 kts 31°
2026-05-05 00:23 25.78168 -100.11808 1276 ft 0 kts 31°
2026-05-05 00:23 25.78173 -100.11812 1276 ft 6 kts 297°
2026-05-05 00:24 25.78216 -100.11849 1276 ft 10 kts 37°
2026-05-05 00:24 25.78280 -100.11799 1276 ft 14 kts 32°
2026-05-05 00:24 25.78323 -100.11771 1276 ft 0 kts 31°
2026-05-05 00:25 25.78348 -100.11755 1276 ft 10 kts 31°
2026-05-05 00:25 25.78395 -100.11700 1276 ft 12 kts 94°
2026-05-05 00:25 25.78289 -100.11487 1276 ft 56 kts 121°
2026-05-05 00:26 25.78017 -100.10991 1316 ft 88 kts 121°
2026-05-05 00:26 25.77679 -100.10361 1447 ft 100 kts 122°
2026-05-05 00:26 25.77302 -100.09676 1583 ft 109 kts 122°
2026-05-05 00:26 25.76903 -100.08951 1716 ft 111 kts 123°
2026-05-05 00:27 25.76459 -100.08263 1856 ft 108 kts 145°
2026-05-05 00:27 25.75760 -100.08180 2030 ft 101 kts 210°
2026-05-05 00:27 25.75250 -100.08664 2162 ft 98 kts 219°
2026-05-05 00:27 25.74678 -100.09125 2214 ft 105 kts 219°
2026-05-05 00:28 25.74072 -100.09631 2277 ft 108 kts 225°
2026-05-05 00:28 25.73783 -100.10363 2312 ft 104 kts 271°
2026-05-05 00:28 25.74075 -100.11041 2360 ft 98 kts 305°
2026-05-05 00:28 25.74495 -100.11645 2319 ft 100 kts 305°
2026-05-05 00:29 25.74926 -100.12263 2279 ft 99 kts 304°
2026-05-05 00:29 25.75341 -100.12854 2282 ft 98 kts 305°
2026-05-05 00:29 25.75752 -100.13433 2268 ft 92 kts 306°
2026-05-05 00:29 25.76137 -100.13972 2266 ft 86 kts 306°
2026-05-05 00:30 25.76495 -100.14471 2266 ft 79 kts 306°
2026-05-05 00:30 25.76830 -100.14914 2261 ft 71 kts 307°
2026-05-05 00:30 25.77165 -100.15340 2190 ft 72 kts 317°
2026-05-05 00:30 25.77653 -100.15273 2100 ft 86 kts 40°
2026-05-05 00:31 25.78120 -100.14833 2030 ft 94 kts 34°
2026-05-05 00:31 25.78685 -100.14398 1917 ft 99 kts 32°
2026-05-05 00:31 25.79184 -100.13946 1793 ft 84 kts 59°
2026-05-05 00:31 25.79202 -100.13326 1643 ft 82 kts 104°
2026-05-05 00:32 25.78988 -100.12730 1515 ft 86 kts 121°
2026-05-05 00:32 25.78662 -100.12163 1377 ft 85 kts 122°
2026-05-05 00:32 25.78385 -100.11661 1282 ft 65 kts 121°
2026-05-05 00:32 25.78181 -100.11291 1276 ft 63 kts 121°
2026-05-05 00:33 25.77891 -100.10777 1333 ft 90 kts 123°
2026-05-05 00:33 25.77513 -100.10145 1431 ft 105 kts 123°
2026-05-05 00:33 25.77125 -100.09434 1601 ft 108 kts 120°
2026-05-05 00:33 25.76743 -100.08677 1742 ft 116 kts 121°
2026-05-05 00:34 25.76228 -100.08035 1945 ft 112 kts 157°
2026-05-05 00:34 25.75488 -100.08099 2114 ft 111 kts 213°
2026-05-05 00:34 25.74839 -100.08560 2241 ft 111 kts 216°
2026-05-05 00:34 25.74180 -100.09032 2276 ft 111 kts 216°
2026-05-05 00:35 25.73542 -100.09488 2274 ft 107 kts 216°
2026-05-05 00:35 25.73119 -100.10084 2283 ft 97 kts 263°
2026-05-05 00:35 25.73367 -100.10757 2250 ft 97 kts 305°
2026-05-05 00:35 25.73760 -100.11328 2270 ft 94 kts 306°
2026-05-05 00:36 25.74158 -100.11905 2269 ft 94 kts 305°
2026-05-05 00:36 25.74556 -100.12486 2273 ft 98 kts 305°
2026-05-05 00:36 25.74977 -100.13096 2280 ft 101 kts 306°
2026-05-05 00:36 25.75410 -100.13719 2281 ft 101 kts 306°
2026-05-05 00:37 25.75843 -100.14332 2282 ft 101 kts 306°
2026-05-05 00:37 25.76273 -100.14942 2279 ft 98 kts 305°
2026-05-05 00:37 25.76669 -100.15504 2301 ft 92 kts 305°
2026-05-05 00:37 25.77063 -100.16039 2260 ft 86 kts 317°
2026-05-05 00:38 25.77642 -100.16059 2179 ft 93 kts 20°
2026-05-05 00:38 25.78146 -100.15619 2142 ft 95 kts 46°
2026-05-05 00:38 25.78538 -100.15016 2065 ft 98 kts 58°
2026-05-05 00:38 25.78877 -100.14346 1966 ft 95 kts 60°
2026-05-05 00:39 25.79084 -100.13688 1856 ft 90 kts 83°
2026-05-05 00:39 25.79054 -100.12991 1702 ft 91 kts 106°
2026-05-05 00:39 25.78787 -100.12374 1476 ft 86 kts 123°
2026-05-05 00:39 25.78482 -100.11839 1307 ft 75 kts 122°
2026-05-05 00:40 25.78249 -100.11411 1276 ft 54 kts 120°
2026-05-05 00:40 25.78124 -100.11186 1276 ft 41 kts 122°
2026-05-05 00:40 25.77898 -100.10779 1299 ft 79 kts 122°
2026-05-05 00:40 25.77571 -100.10188 1378 ft 99 kts 122°
2026-05-05 00:41 25.77184 -100.09486 1461 ft 112 kts 122°
2026-05-05 00:41 25.76758 -100.08714 1556 ft 120 kts 122°
2026-05-05 00:41 25.76329 -100.07942 1633 ft 118 kts 123°
2026-05-05 00:41 25.75729 -100.07420 1731 ft 109 kts 172°
2026-05-05 00:42 25.75055 -100.07645 1851 ft 98 kts 215°
2026-05-05 00:42 25.74494 -100.08055 1972 ft 96 kts 217°
2026-05-05 00:42 25.73943 -100.08461 2092 ft 93 kts 216°
2026-05-05 00:42 25.73599 -100.08731 2157 ft 90 kts 229°
2026-05-05 00:43 25.73571 -100.09377 2099 ft 97 kts 302°
2026-05-05 00:43 25.74094 -100.10203 2128 ft 98 kts 301°
2026-05-05 00:43 25.74353 -100.10629 2184 ft 98 kts 302°
2026-05-05 00:43 25.74714 -100.11220 2268 ft 90 kts 302°
2026-05-05 00:44 25.75068 -100.11797 2267 ft 90 kts 302°
2026-05-05 00:44 25.75423 -100.12376 2272 ft 91 kts 302°
2026-05-05 00:44 25.75782 -100.12965 2268 ft 91 kts 302°
2026-05-05 00:44 25.75992 -100.13579 2340 ft 84 kts 271°
2026-05-05 00:45 25.75780 -100.14162 2363 ft 83 kts 229°
2026-05-05 00:45 25.75255 -100.14447 2357 ft 90 kts 191°
2026-05-05 00:45 25.74658 -100.14323 2434 ft 89 kts 154°
2026-05-05 00:45 25.74221 -100.13783 2433 ft 102 kts 115°
2026-05-05 00:46 25.74155 -100.12998 2440 ft 106 kts 77°
2026-05-05 00:46 25.74527 -100.12288 2376 ft 109 kts 40°
2026-05-05 00:46 25.75195 -100.11947 2280 ft 110 kts
2026-05-05 00:46 25.75929 -100.12109 2212 ft 108 kts 328°
2026-05-05 00:47 25.76405 -100.12683 2282 ft 96 kts 290°
2026-05-05 00:47 25.76452 -100.13370 2397 ft 88 kts 257°
2026-05-05 00:47 25.76134 -100.13958 2364 ft 95 kts 225°
2026-05-05 00:47 25.75547 -100.14289 2339 ft 96 kts 195°
2026-05-05 00:48 25.74888 -100.14209 2383 ft 97 kts 159°
2026-05-05 00:48 25.74387 -100.13675 2368 ft 106 kts 118°
2026-05-05 00:48 25.74329 -100.12874 2347 ft 106 kts 70°
2026-05-05 00:48 25.74825 -100.12316 2296 ft 104 kts 14°
2026-05-05 00:49 25.75458 -100.12490 2288 ft 96 kts 313°
2026-05-05 00:49 25.75879 -100.13095 2201 ft 99 kts 304°
2026-05-05 00:49 25.76279 -100.13704 2203 ft 97 kts 304°
2026-05-05 00:49 25.76665 -100.14297 2199 ft 91 kts 303°
2026-05-05 00:50 25.77021 -100.14846 2150 ft 90 kts 302°
2026-05-05 00:50 25.77393 -100.15431 2075 ft 94 kts 303°
2026-05-05 00:50 25.77767 -100.16019 2003 ft 95 kts 303°
2026-05-05 00:50 25.78151 -100.16630 1931 ft 97 kts 303°
2026-05-05 00:51 25.78534 -100.17251 1883 ft 96 kts 302°
2026-05-05 00:51 25.78904 -100.17851 1879 ft 92 kts 302°
2026-05-05 00:51 25.79262 -100.18435 1884 ft 90 kts 302°
2026-05-05 00:51 25.79673 -100.18942 1871 ft 91 kts 328°
2026-05-05 00:52 25.80287 -100.18954 1867 ft 95 kts 26°
2026-05-05 00:52 25.80825 -100.18533 1867 ft 95 kts 33°
2026-05-05 00:52 25.81369 -100.18107 1867 ft 96 kts 32°
2026-05-05 00:52 25.81714 -100.17491 1835 ft 99 kts 81°
2026-05-05 00:53 25.81558 -100.16758 1745 ft 102 kts 130°
2026-05-05 00:53 25.81077 -100.16194 1713 ft 97 kts 134°
2026-05-05 00:53 25.80667 -100.15624 1672 ft 95 kts 129°
2026-05-05 00:53 25.80295 -100.15030 1641 ft 92 kts 125°
2026-05-05 00:54 25.79923 -100.14464 1612 ft 89 kts 128°
2026-05-05 00:54 25.79605 -100.13879 1578 ft 88 kts 121°
2026-05-05 00:54 25.79284 -100.13294 1524 ft 90 kts 123°
2026-05-05 00:54 25.78957 -100.12711 1471 ft 90 kts 121°
2026-05-05 00:55 25.78637 -100.12122 1385 ft 84 kts 121°
2026-05-05 00:55 25.78359 -100.11614 1279 ft 67 kts 122°
2026-05-05 00:55 25.78156 -100.11241 1276 ft 50 kts 122°
2026-05-05 00:55 25.77904 -100.10795 1299 ft 85 kts 121°
2026-05-05 00:56 25.77555 -100.10186 1407 ft 100 kts 123°
2026-05-05 00:56 25.77157 -100.09505 1525 ft 107 kts 124°
2026-05-05 00:56 25.76751 -100.08807 1635 ft 108 kts 124°
2026-05-05 00:56 25.76342 -100.08102 1742 ft 109 kts 125°
2026-05-05 00:57 25.75852 -100.07497 1853 ft 106 kts 157°
2026-05-05 00:57 25.75157 -100.07577 1906 ft 102 kts 213°
2026-05-05 00:57 25.74547 -100.07983 2027 ft 103 kts 213°
2026-05-05 00:57 25.73952 -100.08375 2120 ft 94 kts 214°
2026-05-05 00:58 25.73431 -100.08757 2195 ft 86 kts 230°
2026-05-05 00:58 25.73358 -100.09359 2205 ft 86 kts 295°
2026-05-05 00:58 25.73713 -100.09922 2164 ft 88 kts 303°
2026-05-05 00:58 25.74040 -100.10438 2267 ft 78 kts 302°
2026-05-05 00:59 25.74377 -100.10975 2274 ft 91 kts 302°
2026-05-05 00:59 25.74742 -100.11559 2280 ft 93 kts 303°
2026-05-05 00:59 25.75115 -100.12152 2285 ft 96 kts 304°
2026-05-05 00:59 25.75524 -100.12806 2207 ft 108 kts 306°
2026-05-05 01:00 25.75961 -100.13502 2216 ft 110 kts 306°
2026-05-05 01:00 25.76401 -100.14203 2209 ft 113 kts 306°
2026-05-05 01:00 25.76846 -100.14913 2208 ft 109 kts 306°
2026-05-05 01:00 25.77272 -100.15596 2147 ft 108 kts 305°
2026-05-05 01:01 25.77760 -100.16209 2042 ft 106 kts 327°
2026-05-05 01:01 25.78417 -100.16457 1928 ft 95 kts
2026-05-05 01:01 25.79005 -100.16205 1840 ft 90 kts 32°
2026-05-05 01:01 25.79553 -100.15894 1764 ft 89 kts 32°
2026-05-05 01:02 25.80060 -100.15558 1708 ft 77 kts 53°
2026-05-05 01:02 25.80142 -100.15028 1694 ft 76 kts 103°
2026-05-05 01:02 25.79910 -100.14448 1636 ft 89 kts 116°
2026-05-05 01:02 25.79588 -100.13839 1587 ft 94 kts 119°
2026-05-05 01:03 25.79245 -100.13219 1506 ft 91 kts 121°
2026-05-05 01:03 25.78950 -100.12688 1414 ft 73 kts 121°
2026-05-05 01:03 25.78699 -100.12236 1342 ft 67 kts 121°
2026-05-05 01:03 25.78460 -100.11801 1296 ft 63 kts 121°
2026-05-05 01:04 25.78269 -100.11446 1276 ft 45 kts 122°
2026-05-05 01:04 25.77740 -100.10526 1414 ft 87 kts 122°
2026-05-05 01:04 25.77392 -100.09935 1512 ft 97 kts 122°
2026-05-05 01:05 25.77008 -100.09281 1624 ft 104 kts 121°
2026-05-05 01:05 25.76599 -100.08595 1746 ft 108 kts 126°
2026-05-05 01:05 25.75935 -100.08245 1949 ft 112 kts 176°
2026-05-05 01:05 25.75232 -100.08648 2087 ft 116 kts 213°
2026-05-05 01:06 25.74615 -100.09186 2194 ft 111 kts 213°
2026-05-05 01:06 25.74005 -100.09720 2195 ft 110 kts 213°
2026-05-05 01:06 25.73488 -100.10286 2168 ft 105 kts 238°
2026-05-05 01:06 25.73585 -100.11064 2099 ft 108 kts 304°
2026-05-05 01:07 25.73994 -100.11746 2088 ft 100 kts 303°
2026-05-05 01:07 25.74360 -100.12360 2124 ft 91 kts 303°
2026-05-05 01:07 25.74699 -100.12926 2158 ft 85 kts 301°
2026-05-05 01:07 25.75034 -100.13486 2199 ft 94 kts 301°
2026-05-05 01:08 25.75314 -100.14154 2273 ft 96 kts 277°
2026-05-05 01:08 25.75130 -100.14814 2418 ft 87 kts 214°
2026-05-05 01:08 25.74566 -100.14897 2403 ft 93 kts 154°
2026-05-05 01:08 25.74179 -100.14344 2386 ft 98 kts 104°
2026-05-05 01:09 25.74365 -100.13578 2327 ft 110 kts 56°
2026-05-05 01:09 25.75038 -100.13170 2303 ft 117 kts 12°
2026-05-05 01:09 25.75854 -100.13343 2169 ft 123 kts 330°
2026-05-05 01:09 25.76396 -100.14050 2134 ft 119 kts 302°
2026-05-05 01:10 25.76813 -100.14804 2195 ft 111 kts 301°
2026-05-05 01:10 25.77215 -100.15538 2191 ft 111 kts 301°
2026-05-05 01:10 25.77615 -100.16271 2193 ft 111 kts 301°
2026-05-05 01:10 25.78004 -100.16984 2195 ft 108 kts 301°
2026-05-05 01:11 25.78383 -100.17686 2193 ft 104 kts 301°
2026-05-05 01:11 25.78749 -100.18366 2192 ft 100 kts 301°
2026-05-05 01:11 25.79099 -100.19010 2188 ft 95 kts 308°
2026-05-05 01:11 25.79594 -100.19488 2186 ft 94 kts 340°
2026-05-05 01:12 25.80228 -100.19484 2158 ft 92 kts 27°
2026-05-05 01:12 25.80798 -100.19159 2136 ft 96 kts 34°
2026-05-05 01:12 25.81398 -100.18788 2073 ft 104 kts 34°
2026-05-05 01:12 25.81861 -100.18251 2187 ft 89 kts 83°
2026-05-05 01:13 25.81650 -100.17597 2117 ft 100 kts 121°
2026-05-05 01:13 25.81290 -100.16926 2042 ft 101 kts 117°
2026-05-05 01:13 25.80948 -100.16280 1990 ft 94 kts 117°
2026-05-05 01:13 25.80621 -100.15664 1932 ft 92 kts 117°
2026-05-05 01:14 25.80301 -100.15065 1878 ft 91 kts 118°
2026-05-05 01:14 25.79962 -100.14480 1831 ft 87 kts 122°
2026-05-05 01:14 25.79634 -100.13942 1796 ft 82 kts 120°
2026-05-05 01:14 25.79339 -100.13399 1718 ft 83 kts 118°
2026-05-05 01:15 25.79059 -100.12874 1593 ft 77 kts 119°
2026-05-05 01:15 25.78790 -100.12385 1418 ft 70 kts 121°
2026-05-05 01:15 25.78552 -100.11962 1312 ft 62 kts 122°
2026-05-05 01:15 25.78347 -100.11588 1276 ft 48 kts 121°
2026-05-05 01:16 25.78168 -100.11268 1280 ft 62 kts 122°
2026-05-05 01:16 25.77897 -100.10791 1350 ft 82 kts 122°
2026-05-05 01:16 25.77565 -100.10208 1437 ft 96 kts 122°
2026-05-05 01:16 25.77197 -100.09563 1530 ft 104 kts 122°
2026-05-05 01:17 25.76798 -100.08864 1622 ft 110 kts 122°
2026-05-05 01:17 25.76363 -100.08170 1767 ft 107 kts 136°
2026-05-05 01:17 25.75632 -100.07990 1848 ft 122 kts 191°
2026-05-05 01:17 25.74927 -100.08502 1986 ft 121 kts 213°
2026-05-05 01:18 25.74284 -100.09066 2112 ft 110 kts 214°
2026-05-05 01:18 25.73725 -100.09566 2194 ft 98 kts 213°
2026-05-05 01:18 25.73318 -100.10151 2144 ft 103 kts 262°
2026-05-05 01:18 25.73653 -100.10863 2065 ft 107 kts 304°
2026-05-05 01:19 25.74078 -100.11492 2098 ft 98 kts 306°
2026-05-05 01:19 25.74475 -100.12068 2187 ft 94 kts 306°
2026-05-05 01:19 25.74886 -100.12666 2196 ft 98 kts 305°
2026-05-05 01:19 25.75301 -100.13279 2197 ft 101 kts 304°
2026-05-05 01:20 25.75721 -100.13897 2207 ft 102 kts 305°
2026-05-05 01:20 25.76150 -100.14533 2211 ft 104 kts 306°
2026-05-05 01:20 25.76596 -100.15192 2211 ft 109 kts 308°
2026-05-05 01:20 25.77056 -100.15870 2187 ft 113 kts 308°
2026-05-05 01:21 25.77533 -100.16560 2110 ft 113 kts 308°
2026-05-05 01:21 25.78016 -100.17214 2029 ft 105 kts 323°
2026-05-05 01:21 25.78663 -100.17404 2009 ft 95 kts 17°
2026-05-05 01:21 25.79251 -100.17076 1927 ft 97 kts 34°
2026-05-05 01:22 25.79846 -100.16693 1828 ft 102 kts 35°
2026-05-05 01:22 25.80340 -100.16230 1785 ft 85 kts 72°
2026-05-05 01:22 25.80313 -100.15599 1712 ft 85 kts 99°
2026-05-05 01:22 25.80127 -100.14970 1670 ft 85 kts 112°
2026-05-05 01:23 25.79885 -100.14385 1635 ft 83 kts 116°
2026-05-05 01:23 25.79599 -100.13819 1570 ft 82 kts 124°
2026-05-05 01:23 25.79285 -100.13296 1522 ft 81 kts 121°
2026-05-05 01:23 25.78998 -100.12778 1466 ft 77 kts 120°
2026-05-05 01:24 25.78725 -100.12271 1387 ft 76 kts 121°
2026-05-05 01:24 25.78469 -100.11810 1301 ft 60 kts 121°
2026-05-05 01:24 25.78293 -100.11493 1276 ft 37 kts 124°
2026-05-05 01:24 25.78206 -100.11338 1276 ft 18 kts 121°
2026-05-05 01:25 25.78168 -100.11269 1276 ft 3 kts 121°
2026-05-05 01:25 25.78163 -100.11259 1276 ft 0 kts 121°
2026-05-05 01:25 25.78128 -100.11211 1276 ft 19 kts 150°
2026-05-05 01:25 25.78018 -100.11260 1276 ft 16 kts 211°
2026-05-05 01:26 25.77980 -100.11287 1276 ft 9 kts 215°
2026-05-05 01:26 25.78005 -100.11375 1276 ft 21 kts 304°
2026-05-05 01:26 25.78100 -100.11546 1276 ft 31 kts 302°
2026-05-05 01:26 25.78217 -100.11754 1276 ft 25 kts 302°
2026-05-05 01:27 25.78185 -100.11865 1276 ft 16 kts 211°
2026-05-05 01:27 25.78125 -100.11835 1276 ft 4 kts 37°
2026-05-05 01:27 25.78155 -100.11816 1276 ft 5 kts 31°
2026-05-05 01:27 25.78168 -100.11808 1276 ft 0 kts 32°